FALCON 9 DEB (52711 NORAD) Tracking and Keplerian Element Data

This shows tracking and keplerian element data for the satellite.

Feedback or suggestion? Click here.




ElementValue
Catalog52711
NameFALCON 9 DEB
Epoch Orbit810
Epoch Day182.01273561
Epoch Year2022
RAAN73.5699
Inclination53.1877
Eccentricity0.0007694
Argument of Perigee262.2409
Mean Anonmoly97.7766
Mean Motion16.39917588
Decay Rate0.06261453
L11 52711U 22053BH 22182.01273561 .06261453 12331-4 45562-3 0 9994
L22 52711 53.1877 73.5699 0007694 262.2409 97.7766 16.39917588 8107

Live tracking and technical data element details for FALCON 9 DEB (NORAD 52711). FALCON 9 DEB can be tracked NOW for your location showing map with azimuth and elevation plus other details from your city location.

Track the satellite on the map from your city or location and see movement details for azimuth, elevation, latitude, longitude, range, height, and movement on the map or in text.







IsCatalogInMostPopularTable: catalog: 52711, numindb: 6
Update: records affected: 1



GetName: 52711 FALCON 9 DEB

Hit Count: updated at: Sun, 14 Aug 2022 00:11:49 GMT